Location: Albany
(35.0170°S, 117.8920°E)
Time: 01:05:35
(UTC+08:00)

Explorer 7 - Pass Details

Date: 23 January 2021
Orbit: 484 x 677 km, 50.3° (Epoch: 01 March)

Event Time Altitude Azimuth Distance (km) Brightness Sun altitude
Rises 23:07:04 0° 228° (SW) 2,845 11.3 -33.0°
Reaches altitude 10° 23:09:27 10° 225° (SW) 1,904 10.3 -33.1°
Enters shadow 23:10:51 20° 221° (SW) 1,370 9.4 -33.2°
Maximum altitude 23:13:46 66° 142° (SE) 606 - -33.4°
Drops below altitude 10° 23:17:46 10° 59° (ENE) 1,771 - -33.7°
Sets 23:19:55 0° 56° (NE) 2,627 - -33.8°
